TimeCDT,TemperatureF,Dew PointF,Humidity,Sea Level PressureIn,VisibilityMPH,Wind Direction,Wind SpeedMPH,Gust SpeedMPH,PrecipitationIn,Events,Conditions,WindDirDegrees,DateUTC
12:15 AM,61.2,61.0,99,30.03,0.5,Calm,Calm,-,N/A,Fog,Fog,0,2013-08-22 05:15:00
12:35 AM,61.2,61.0,99,30.03,4.0,Calm,Calm,-,N/A,,Mostly Cloudy,0,2013-08-22 05:35:00
12:55 AM,60.3,60.1,99,30.03,0.5,Calm,Calm,-,N/A,Fog,Fog,0,2013-08-22 05:55:00
1:15 AM,60.4,60.3,99,30.03,0.5,Calm,Calm,-,N/A,Fog,Fog,0,2013-08-22 06:15:00
1:35 AM,60.4,60.3,99,30.04,0.8,Calm,Calm,-,0.01,,Overcast,0,2013-08-22 06:35:00
1:55 AM,59.2,59.0,99,30.05,0.2,Calm,Calm,-,0.01,Fog,Fog,0,2013-08-22 06:55:00
2:15 AM,59.0,59.0,100,30.04,1.2,Calm,Calm,-,N/A,,Mostly Cloudy,0,2013-08-22 07:15:00
2:35 AM,59.0,59.0,100,30.05,0.8,Calm,Calm,-,N/A,,Overcast,0,2013-08-22 07:35:00
2:55 AM,58.3,58.3,100,30.05,10.0,Calm,Calm,-,N/A,,Mostly Cloudy,0,2013-08-22 07:55:00
3:15 AM,59.0,58.8,99,30.05,3.0,Calm,Calm,-,N/A,,Overcast,0,2013-08-22 08:15:00
3:35 AM,59.2,59.0,99,30.05,5.0,Calm,Calm,-,N/A,,Overcast,0,2013-08-22 08:35:00
3:55 AM,59.4,59.2,99,30.05,0.2,Calm,Calm,-,N/A,Fog,Fog,0,2013-08-22 08:55:00
4:15 AM,59.5,59.4,99,30.05,0.2,Calm,Calm,-,N/A,Fog,Fog,0,2013-08-22 09:15:00
4:35 AM,58.5,58.5,100,30.05,1.0,Calm,Calm,-,N/A,,Overcast,0,2013-08-22 09:35:00
4:55 AM,58.6,58.6,100,30.06,7.0,Calm,Calm,-,N/A,,Mostly Cloudy,0,2013-08-22 09:55:00
5:15 AM,58.5,58.5,100,30.06,2.0,Calm,Calm,-,N/A,,Overcast,0,2013-08-22 10:15:00
5:35 AM,58.1,58.1,100,30.06,10.0,Calm,Calm,-,N/A,,Mostly Cloudy,0,2013-08-22 10:35:00
5:55 AM,58.3,58.1,99,30.06,10.0,Calm,Calm,-,N/A,,Scattered Clouds,0,2013-08-22 10:55:00
6:15 AM,59.0,58.8,99,30.06,7.0,Calm,Calm,-,N/A,,Clear,0,2013-08-22 11:15:00
6:35 AM,59.0,59.0,100,30.07,7.0,Calm,Calm,-,N/A,,Clear,0,2013-08-22 11:35:00
6:55 AM,59.5,59.2,99,30.09,10.0,North,3.5,-,N/A,,Clear,360,2013-08-22 11:55:00
7:15 AM,59.9,59.4,98,30.09,10.0,North,4.6,-,N/A,,Clear,360,2013-08-22 12:15:00
7:35 AM,60.8,60.1,97,30.09,10.0,North,5.8,-,N/A,,Clear,10,2013-08-22 12:35:00
7:55 AM,61.0,59.9,96,30.10,10.0,North,3.5,-,N/A,,Clear,10,2013-08-22 12:55:00
8:15 AM,61.0,59.5,95,30.10,10.0,NNE,4.6,-,N/A,,Clear,20,2013-08-22 13:15:00
8:35 AM,61.7,59.5,93,30.11,10.0,North,3.5,-,N/A,,Scattered Clouds,10,2013-08-22 13:35:00
8:55 AM,61.7,59.5,93,30.10,10.0,North,4.6,-,N/A,,Scattered Clouds,10,2013-08-22 13:55:00
9:15 AM,62.6,59.9,91,30.10,10.0,North,5.8,-,N/A,,Scattered Clouds,10,2013-08-22 14:15:00
9:35 AM,62.8,59.9,90,30.10,10.0,North,3.5,-,N/A,,Scattered Clouds,360,2013-08-22 14:35:00
9:55 AM,62.6,59.7,90,30.12,10.0,Calm,Calm,-,N/A,,Mostly Cloudy,0,2013-08-22 14:55:00
10:15 AM,62.8,59.5,89,30.12,10.0,Calm,Calm,-,N/A,,Scattered Clouds,0,2013-08-22 15:15:00
10:35 AM,63.7,59.7,87,30.13,10.0,Calm,Calm,-,N/A,,Clear,0,2013-08-22 15:35:00
10:55 AM,65.3,60.3,84,30.13,10.0,Calm,Calm,-,N/A,,Clear,0,2013-08-22 15:55:00
11:15 AM,67.6,60.6,78,30.14,10.0,Calm,Calm,-,N/A,,Clear,0,2013-08-22 16:15:00
11:35 AM,68.4,61.0,77,30.13,10.0,Calm,Calm,-,N/A,,Clear,0,2013-08-22 16:35:00
11:55 AM,69.6,60.8,73,30.13,10.0,Calm,Calm,-,N/A,,Clear,0,2013-08-22 16:55:00
12:15 PM,71.8,61.0,69,30.12,10.0,Calm,Calm,-,N/A,,Clear,0,2013-08-22 17:15:00
12:35 PM,73.0,59.7,63,30.12,10.0,NW,3.5,-,N/A,,Clear,310,2013-08-22 17:35:00
12:55 PM,73.9,59.4,60,30.11,10.0,Calm,Calm,-,N/A,,Clear,0,2013-08-22 17:55:00
1:15 PM,75.4,54.9,49,30.11,10.0,ENE,5.8,-,N/A,,Clear,60,2013-08-22 18:15:00
1:35 PM,75.6,55.9,50,30.11,10.0,NE,6.9,-,N/A,,Clear,50,2013-08-22 18:35:00
1:55 PM,77.0,54.3,45,30.11,10.0,East,8.1,-,N/A,,Clear,80,2013-08-22 18:55:00
2:15 PM,79.0,52.9,40,30.10,10.0,ENE,9.2,-,N/A,,Clear,70,2013-08-22 19:15:00
2:35 PM,77.9,51.4,40,30.10,10.0,East,9.2,-,N/A,,Clear,80,2013-08-22 19:35:00
2:39 PM,78.8,51.8,39,30.10,10.0,East,8.1,-,N/A,,Clear,90,2013-08-22 19:39:00
2:55 PM,78.3,50.9,38,30.10,10.0,East,5.8,-,N/A,,Clear,90,2013-08-22 19:55:00
3:15 PM,79.0,48.0,34,30.10,10.0,East,4.6,-,N/A,,Clear,90,2013-08-22 20:15:00
3:35 PM,79.0,48.7,35,30.09,10.0,NNE,4.6,-,N/A,,Clear,20,2013-08-22 20:35:00
3:55 PM,79.0,50.7,37,30.09,10.0,North,5.8,-,N/A,,Clear,10,2013-08-22 20:55:00
4:15 PM,79.0,51.3,38,30.09,10.0,ENE,6.9,-,N/A,,Clear,70,2013-08-22 21:15:00
4:35 PM,79.3,52.0,38,30.09,10.0,NNE,6.9,-,N/A,,Clear,30,2013-08-22 21:35:00
4:55 PM,78.1,51.8,40,30.09,10.0,NE,4.6,-,N/A,,Clear,50,2013-08-22 21:55:00
5:15 PM,78.8,52.7,40,30.09,10.0,NE,5.8,-,N/A,,Clear,40,2013-08-22 22:15:00
5:35 PM,78.3,52.5,41,30.09,10.0,ENE,3.5,-,N/A,,Clear,70,2013-08-22 22:35:00
5:55 PM,78.1,52.7,41,30.10,10.0,Calm,Calm,-,N/A,,Clear,0,2013-08-22 22:55:00
6:15 PM,77.9,53.8,43,30.10,10.0,Calm,Calm,-,N/A,,Clear,0,2013-08-22 23:15:00
6:35 PM,77.4,53.4,43,30.10,10.0,Calm,Calm,-,N/A,,Clear,0,2013-08-22 23:35:00
6:55 PM,76.5,53.6,45,30.10,10.0,East,3.5,-,N/A,,Clear,90,2013-08-22 23:55:00
7:15 PM,75.6,55.2,49,30.10,10.0,Calm,Calm,-,N/A,,Clear,0,2013-08-23 00:15:00
7:35 PM,73.6,56.7,55,30.10,10.0,Calm,Calm,-,N/A,,Clear,0,2013-08-23 00:35:00
7:55 PM,70.2,59.0,68,30.10,10.0,Calm,Calm,-,N/A,,Clear,0,2013-08-23 00:55:00
8:15 PM,66.6,59.2,77,30.11,10.0,Calm,Calm,-,N/A,,Scattered Clouds,0,2013-08-23 01:15:00
8:35 PM,65.5,59.4,81,30.12,10.0,Calm,Calm,-,N/A,,Scattered Clouds,0,2013-08-23 01:35:00
8:55 PM,63.9,58.6,83,30.13,10.0,Calm,Calm,-,N/A,,Clear,0,2013-08-23 01:55:00
9:15 PM,64.8,58.5,80,30.13,10.0,Calm,Calm,-,N/A,,Clear,0,2013-08-23 02:15:00
9:35 PM,63.5,58.3,83,30.13,10.0,Calm,Calm,-,N/A,,Clear,0,2013-08-23 02:35:00
9:55 PM,62.6,58.1,85,30.14,10.0,Calm,Calm,-,N/A,,Clear,0,2013-08-23 02:55:00
10:15 PM,61.9,57.4,85,30.14,10.0,Calm,Calm,-,N/A,,Scattered Clouds,0,2013-08-23 03:15:00
10:35 PM,60.4,58.1,92,30.14,10.0,Calm,Calm,-,N/A,,Scattered Clouds,0,2013-08-23 03:35:00
10:55 PM,61.9,57.0,84,30.14,10.0,Calm,Calm,-,N/A,,Clear,0,2013-08-23 03:55:00
11:15 PM,61.2,56.7,85,30.14,10.0,Calm,Calm,-,N/A,,Clear,0,2013-08-23 04:15:00
11:35 PM,59.0,56.3,91,30.14,10.0,Calm,Calm,-,N/A,,Clear,0,2013-08-23 04:35:00
11:55 PM,60.8,55.4,82,30.15,10.0,Calm,Calm,-,N/A,,Clear,0,2013-08-23 04:55:00